Regional Weather Roundup
Issued by NWS

Home | Current Version | Previous Version | Graphics & Text | Print | Product List | Glossary On
Versions: 1 2 3 4 5 6 7 8 9 10 11 12 13 14 15 16 17 18 19 20 21 22 23 24 25 26 27 28 29 30 31 32 33 34 35 36 37 38 39 40 41 42 43 44 45 46 47 48 49 50
000
ASUS45 KABQ 230401
RWRNM
NEW MEXICO REGIONAL WEATHER ROUNDUP
NATIONAL WEATHER SERVICE ALBUQUERQUE NM
900 PM MST WED FEB 22 2017

NOTE: "FAIR" MEANS FEW OR NO CLOUDS BELOW 12,000 FEET AGL WITH NO
       SIGNIFICANT WEATHER OR OBSTRUCTIONS TO VISION.

      THIS PRODUCT IS RELEASED AS TWO VERSIONS.  ONE VERSION NEAR
      THE TOP OF THE HOUR CONTAINING PRELIMINARY DATA FROM ALBUQUERQUE
      AND OTHER STATIONS.  A FINAL VERSION WITH ADDITIONAL DATA IS
      ISSUED ABOUT 10 MINUTES AFTER THE HOUR.

NMZ501-503-504-510>518-230500-
NORTHWEST PLATEAU/NORTHCENTRAL MOUNTAINS

CITY           SKY/WX    TMP DP  RH WIND       PRES   REMARKS
FARMINGTON     FAIR      52  15  23 SW18G30   29.75S
LOS ALAMOS     CLOUDY    48  22  36 W29G48    29.89F
SANTA FE       MOCLDY    50  28  42 SW10      29.90R
TAOS             N/A     46  19  34 W20G31    29.90S
ANGEL FIRE     LGT SNOW  35  29  81 SW14G20   29.96R WCI  25

$$
NMZ402-403-502-505>509-230500-
WESTCENTRAL MOUNTAINS/SOUTHWEST MOUNTAINS

CITY           SKY/WX    TMP DP  RH WIND       PRES   REMARKS
GALLUP         FAIR      50  20  30 SW23G33   29.85F
GRANTS         CLOUDY    50  18  27 SW22G37   29.96F
SILVER CITY    FAIR      50  35  55 NW12      29.94S

$$
NMZ407-409-411-412-230500-
SOUTHERN DESERTS

CITY           SKY/WX    TMP DP  RH WIND       PRES   REMARKS
DEMING         FAIR      56  35  45 W8        29.90S
LAS CRUCES     FAIR      57  32  37 W6        29.90F
HOLLOMAN AFB   FAIR      62  30  29 SW7       29.90S
ALAMOGORDO     FAIR      61  28  29 SE5       29.88F
T OR C         FAIR      63  30  28 SW10      29.86F

$$
NMZ519>523-230500-
CENTRAL VALLEYS/CENTRAL HIGHLANDS

CITY           SKY/WX    TMP DP  RH WIND       PRES   REMARKS
ALBUQUERQUE    MOCLDY    54  30  40 N12G20    29.89S
DOUBLE EAGLE   PTCLDY    45  28  53 W9        29.90S
MORIARTY ARPT  CLOUDY    57  32  38 W14       29.90S
CLINES CORNERS MOCLDY    47  30  51 W13       29.92F
BELEN          FAIR      51  31  46 NW12      29.89R
SOCORRO        FAIR      61  27  27 W9        29.86S

$$
NMZ524>526-539-540-230500-
SOUTHCENTRAL MOUNTAINS

CITY           SKY/WX    TMP DP  RH WIND       PRES   REMARKS
RUIDOSO        NOT AVBL

$$
NMZ527>531-230500-
NORTHEAST HIGHLANDS/NORTHEAST PLAINS

CITY           SKY/WX    TMP DP  RH WIND       PRES   REMARKS
RATON          FAIR      48  28  46 SW28G35   29.84S
CLAYTON        FAIR      56  29  35 W24G36    29.76F

$$
NMZ532>537-230500-
EASTCENTRAL PLAINS

CITY           SKY/WX    TMP DP  RH WIND       PRES   REMARKS
TUCUMCARI      FAIR      52  32  46 CALM      29.78S
CANNON AFB     FAIR      52  31  46 E3        29.80F
CLOVIS AIRPORT FAIR      52  32  46 CALM      29.80F

$$
NMZ028-029-538-230500-
SOUTHEAST PLAINS

CITY           SKY/WX    TMP DP  RH WIND       PRES   REMARKS
ROSWELL        FAIR      55  27  34 W8          N/A
ARTESIA        FAIR      61  30  31 W9        29.81F
CARLSBAD       FAIR      61  23  23 CALM      29.80S
HOBBS          FAIR      52  21  30 SW9       29.83S


$$




USA.gov is the U.S. government's official web portal to all federal, state and local government web resources and services.